[[{"header":{"parameterUnit":"m.s-1","parameterCategory":1,"la1":30.2991,"la2":30.254,"lo1":-89.0895,"lo2":-89.0444,"dy":0.0017,"dx":0.0017,"nx":28,"ny":28,"refTime":"2024-02-12T03:00:00:Z","depth":0,"parameterNumber":2,"parameterNumberName":"U-component_of_WINDS"},"data":[0,0,0,0,0,0,0,0,0,0,0,0,0,0,0,0,0,0,0,0,0,0,0,0,0,0,0,0,0,0,0,0,0,0,0,0,0,0,0,0,0,0,0,0,0,0,0,0,0,0,0,0,0,0,0,0,0,0,8.5015,8.5017,0,8.5234,8.5236,8.5239,8.5189,8.5185,8.5181,8.5177,8.5403,8.5413,8.5423,0,0,0,0,0,0,0,0,0,0,0,0,0,8.4556,8.4564,8.5014,8.5017,8.502,8.5234,8.5237,8.524,8.519,8.5185,8.518,8.5175,8.54,8.5412,8.5423,0,0,0,0,0,0,0,0,0,0,0,0,0,8.4763,8.4567,8.5014,8.5021,8.5024,8.5233,8.5237,8.524,8.5191,8.5185,8.5178,8.5172,8.5396,8.541,8.5425,8.5642,0,0,8.5471,8.5477,0,0,0,0,0,0,0,0,8.4751,8.478,8.5017,8.5021,8.5024,8.5178,8.5158,8.5375,8.5192,8.5127,8.5177,8.5169,8.5333,8.5353,8.5408,8.5652,8.5662,8.5472,8.5481,8.5487,8.5491,0,0,0,0,0,0,0,8.4737,8.477,8.5101,8.5021,8.5025,8.5014,8.5037,8.5199,8.5263,8.5133,8.5129,8.5156,8.5334,8.5394,8.5413,8.5666,8.5471,8.5485,8.5494,8.55,8.6102,8.6109,0,0,0,0,0,0,8.4719,8.4759,8.5094,8.5108,8.487,8.5027,8.5053,8.5135,8.5261,8.5274,8.5161,8.5153,8.5371,8.5396,8.5421,8.5685,8.5487,8.5501,8.551,8.6095,8.6104,8.6112,0,0,0,0,0,0,8.471,8.475,8.5085,8.4933,8.4974,8.5042,8.5135,8.5142,8.5202,8.5282,8.5294,8.521,8.5367,8.54,8.5588,8.5692,8.5508,8.5521,8.6087,8.6098,8.6108,8.6214,0,0,0,0,0,0,8.4697,8.4747,8.4829,8.4935,8.4983,8.5248,8.5141,8.5151,8.5227,8.5219,8.5331,8.5344,8.5365,8.5566,8.5603,8.5709,8.5533,8.6078,8.6092,8.6104,8.6201,8.6227,8.6249,0,0,0,0,0,8.468,8.485,8.4833,8.4874,8.5087,8.5254,8.5282,8.5302,8.5236,8.532,8.5372,8.534,8.5674,8.5586,8.5627,8.5739,8.6071,8.6088,8.6103,8.6191,8.6222,8.6248,0,0,0,0,0,0,8.4754,8.4863,8.4846,8.5055,8.5146,8.5246,8.5352,8.5334,8.5446,8.5433,8.5454,8.548,8.5672,8.5724,8.5623,8.5957,8.5864,8.5889,8.5916,8.5946,8.5969,8.5954,8.5545,0,0,0,0,0,8.4794,8.492,8.501,8.5185,8.5231,8.5284,8.5358,8.5366,8.5461,8.5499,8.5565,8.5659,8.5786,8.5869,8.5989,8.6208,8.6234,8.6306,8.633,8.6349,8.637,8.6493,8.6527,8.6164,8.6164,8.6164,0,0,8.4879,8.4955,8.5033,8.5202,8.5273,8.5405,8.5317,8.5459,8.5558,8.5521,8.5703,8.5755,8.5862,8.6067,8.6161,8.6117,8.6476,8.6369,8.6384,8.6395,8.6513,8.6547,8.6578,8.6175,8.6173,8.6171,0,0,8.5101,8.517,8.5325,8.5399,8.5508,8.5542,8.558,8.5683,8.5717,8.59,8.5876,8.5993,8.621,8.6288,8.6356,8.6611,8.6587,8.6649,8.6773,8.6892,8.6921,8.6946,8.7039,8.7072,8.667,8.6671,8.6671,0,8.5193,8.539,8.5407,8.5553,8.5629,8.5602,8.576,8.5831,8.5974,8.6028,8.5976,8.6249,8.6319,8.6543,8.6606,8.6661,8.6706,8.6637,8.6915,8.6941,8.6965,8.7054,8.7089,8.6678,8.6677,8.6676,8.6676,0,8.5499,8.5636,8.5748,8.5887,8.5976,8.6127,8.6168,8.6256,8.6257,8.6297,8.6485,8.6568,8.6707,8.676,8.6762,8.6987,8.6956,8.6909,8.6816,8.7006,8.7091,8.7125,8.6688,8.6685,8.6683,8.6681,0,0,8.5773,8.5921,8.5963,8.6027,8.6146,8.6253,8.6404,8.6539,8.6615,8.6715,8.6844,8.7029,8.6987,8.7065,8.7075,8.718,8.7379,8.7121,8.7124,8.7168,8.7634,8.767,8.7709,8.7363,8.737,8.7375,8.7626,0,8.6008,8.6273,8.6294,8.6534,8.6662,8.6639,8.6771,8.6859,8.6901,8.7017,8.7064,8.7196,8.713,8.7177,8.7279,8.7333,8.7473,8.7315,8.7485,8.7491,8.746,8.7752,8.779,8.8022,8.7659,8.7664,8.7668,0,8.6317,8.6427,8.668,8.6783,8.6838,8.6956,8.7083,8.7193,8.7294,8.7317,8.7405,8.7402,8.7559,8.7459,8.7677,8.7569,8.764,8.7677,8.7687,8.7705,8.7592,8.778,8.8097,8.8133,8.772,8.7716,8.7712,0,8.6495,8.6706,8.6885,8.694,8.7065,8.7149,8.7205,8.73,8.738,8.7491,8.7545,8.7672,8.7743,8.7843,8.7875,8.7799,8.8093,8.7995,8.8119,8.8118,8.8182,8.8178,8.8517,8.8225,8.8225,8.8224,8.8224,0,8.6756,8.6912,8.6967,8.7077,8.7252,8.7275,8.7448,8.75,8.7584,8.7706,8.7693,8.7807,8.7842,8.7963,8.7989,8.8167,8.8199,8.8223,8.8229,8.8226,8.8223,8.8273,8.8259,8.8234,8.8231,8.823,8.8228,0,8.6985,8.7027,8.7222,8.7324,8.7354,8.7478,8.7567,8.7674,8.7714,8.7868,8.7906,8.797,8.8112,8.8153,8.8324,8.8341,8.8551,8.8541,8.8517,8.8518,8.864,8.8628,8.9024,8.9078,8.8749,8.8752,8.8755,0,8.7149,8.7269,8.7385,8.7465,8.7525,8.7654,8.7736,8.7764,8.7851,8.7976,8.8069,8.8208,8.8322,8.855,8.8613,8.8744,8.8738,8.8868,8.8758,8.8752,8.8743,8.8736,8.8749,8.8889,8.8892,8.8895,8.8897,0,8.7438,8.7454,8.7573,8.77,8.7799,8.7901,8.7999,8.8065,8.8107,8.8206,8.8351,8.8439,8.8614,8.8754,8.8887,8.8946,8.8931,8.8932,8.8967,8.8966,8.8949,8.8962,8.8576,8.8923,8.892,8.8918,8.8917,8.8916,8.7642,8.7748,8.7846,8.798,8.8057,8.8149,8.8255,8.8309,8.843,8.8574,8.8584,8.8741,8.8841,8.9019,8.9085,8.921,8.9172,8.9223,8.9237,8.9249,8.9261,8.8927,8.9234,8.9233,8.9232,8.9232,8.9231,0,8.7932,8.7994,8.8117,8.8254,8.836,8.8335,8.8442,8.8533,8.8672,8.8766,8.8878,8.9046,8.9182,8.9256,8.9392,8.9478,8.9475,8.9513,8.9508,8.9523,8.9285,8.9242,8.9514,8.9514,8.9514,8.9514,8.9514,8.9514,8.8095,8.8274,8.8302,8.852,8.8581,8.8735,8.8799,8.8885,8.896,8.9148,8.9261,8.9308,8.9395,8.9538,8.9662,8.9681,8.9732,8.9776,8.979,8.9568,8.9539,8.9511,8.947,8.9786,8.9787,9.0017,9.0019,9.0021]},{"header":{"parameterUnit":"m.s-1","parameterCategory":1,"la1":30.2991,"la2":30.254,"lo1":-89.0895,"lo2":-89.0444,"dy":0.0017,"dx":0.0017,"nx":28,"ny":28,"refTime":"2024-02-12T03:00:00:Z","depth":0,"parameterNumber":3,"parameterNumberName":"V-component_of_WINDS"},"data":[0,0,0,0,0,0,0,0,0,0,0,0,0,0,0,0,0,0,0,0,0,0,0,0,0,0,0,0,0,0,0,0,0,0,0,0,0,0,0,0,0,0,0,0,0,0,0,0,0,0,0,0,0,0,0,0,0,0,-4.7313,-4.7314,0,-4.7409,-4.741,-4.7411,-4.7403,-4.7401,-4.74,-4.7398,-4.7493,-4.7496,-4.75,0,0,0,0,0,0,0,0,0,0,0,0,0,-4.7122,-4.7126,-4.7313,-4.7314,-4.7316,-4.7408,-4.741,-4.7411,-4.7403,-4.7401,-4.7399,-4.7398,-4.7491,-4.7496,-4.75,0,0,0,0,0,0,0,0,0,0,0,0,0,-4.721,-4.7127,-4.7313,-4.7323,-4.7325,-4.7408,-4.741,-4.7411,-4.7403,-4.7401,-4.7399,-4.7397,-4.749,-4.7495,-4.7501,-4.758,0,0,-4.7519,-4.7521,0,0,0,0,0,0,0,0,-4.7205,-4.7217,-4.732,-4.7322,-4.7325,-4.7392,-4.7377,-4.7468,-4.7404,-4.7373,-4.7398,-4.7396,-4.7461,-4.7469,-4.7491,-4.7584,-4.7588,-4.7519,-4.7523,-4.7525,-4.7527,0,0,0,0,0,0,0,-4.7199,-4.7213,-4.7351,-4.7322,-4.7324,-4.7322,-4.7332,-4.7394,-4.7428,-4.7376,-4.7376,-4.7387,-4.7461,-4.7486,-4.7493,-4.759,-4.7519,-4.7524,-4.7528,-4.753,-4.7753,-4.7755,0,0,0,0,0,0,-4.7191,-4.7208,-4.7348,-4.7354,-4.7258,-4.7327,-4.7338,-4.7372,-4.7427,-4.7433,-4.7389,-4.7386,-4.7477,-4.7486,-4.7496,-4.7593,-4.7525,-4.7531,-4.7534,-4.7751,-4.7754,-4.7756,0,0,0,0,0,0,-4.7187,-4.7203,-4.7344,-4.7281,-4.7298,-4.7333,-4.7371,-4.7375,-4.7399,-4.7437,-4.7443,-4.7408,-4.7475,-4.7488,-4.756,-4.7596,-4.7533,-4.7538,-4.7748,-4.7752,-4.7755,-4.7785,0,0,0,0,0,0,-4.7181,-4.7202,-4.7233,-4.7282,-4.7302,-4.7406,-4.7373,-4.7379,-4.741,-4.7408,-4.7456,-4.7462,-4.7475,-4.7551,-4.7565,-4.7602,-4.7543,-4.7745,-4.7749,-4.7754,-4.7781,-4.7789,-4.7797,0,0,0,0,0,-4.7175,-4.7236,-4.7234,-4.7251,-4.7341,-4.7408,-4.742,-4.7434,-4.7413,-4.7444,-4.7468,-4.746,-4.759,-4.7558,-4.7574,-4.7614,-4.7742,-4.7748,-4.7753,-4.7778,-4.7788,-4.7796,0,0,0,0,0,0,-4.7189,-4.7243,-4.7241,-4.7321,-4.736,-4.7407,-4.7446,-4.7444,-4.749,-4.7486,-4.7501,-4.7512,-4.7583,-4.7606,-4.757,-4.7693,-4.7663,-4.7672,-4.7676,-4.7686,-4.7694,-4.7686,-4.7548,0,0,0,0,0,-4.7202,-4.7253,-4.7297,-4.7363,-4.7383,-4.7411,-4.7441,-4.7449,-4.749,-4.7506,-4.7536,-4.7575,-4.7624,-4.7657,-4.7704,-4.7785,-4.7795,-4.782,-4.7828,-4.7834,-4.7841,-4.7886,-4.7897,-4.7774,-4.7774,-4.7774,0,0,-4.7228,-4.7264,-4.7295,-4.7367,-4.7398,-4.745,-4.7425,-4.7481,-4.7519,-4.7514,-4.7584,-4.7607,-4.7652,-4.7728,-4.7763,-4.7749,-4.7878,-4.7841,-4.7845,-4.7849,-4.7893,-4.7904,-4.7914,-4.7778,-4.7778,-4.7777,0,0,-4.7303,-4.7335,-4.7394,-4.7427,-4.7475,-4.7494,-4.7508,-4.7556,-4.7572,-4.7642,-4.764,-4.7685,-4.777,-4.7802,-4.783,-4.7919,-4.7913,-4.7934,-4.7974,-4.8017,-4.8027,-4.8035,-4.8067,-4.8078,-4.7941,-4.7941,-4.7941,0,-4.7329,-4.7408,-4.7424,-4.7481,-4.7513,-4.7513,-4.7572,-4.7603,-4.7664,-4.7685,-4.7669,-4.7777,-4.7807,-4.7891,-4.7913,-4.7935,-4.7952,-4.7928,-4.8024,-4.8033,-4.8041,-4.8072,-4.8083,-4.7943,-4.7943,-4.7943,-4.7943,0,-4.7438,-4.7493,-4.7534,-4.7595,-4.7632,-4.7689,-4.7714,-4.7749,-4.7754,-4.7775,-4.7846,-4.7883,-4.7938,-4.7959,-4.7964,-4.8045,-4.8034,-4.8021,-4.7991,-4.8055,-4.8084,-4.8095,-4.7946,-4.7946,-4.7945,-4.7944,0,0,-4.7522,-4.7593,-4.7608,-4.7636,-4.769,-4.7733,-4.7791,-4.7847,-4.7876,-4.7919,-4.7968,-4.8041,-4.8029,-4.8061,-4.807,-4.8108,-4.8176,-4.809,-4.8091,-4.8104,-4.8267,-4.8276,-4.8289,-4.8173,-4.8176,-4.8178,-4.8263,0,-4.7602,-4.7705,-4.7723,-4.7813,-4.7864,-4.7866,-4.7916,-4.7955,-4.7976,-4.8022,-4.8045,-4.8096,-4.8078,-4.8097,-4.8135,-4.816,-4.8209,-4.8154,-4.8218,-4.822,-4.8206,-4.8304,-4.8313,-4.8392,-4.8274,-4.8276,-4.8277,0,-4.7708,-4.7755,-4.7851,-4.79,-4.7922,-4.7968,-4.8021,-4.8065,-4.8109,-4.8121,-4.8158,-4.8162,-4.8222,-4.8191,-4.8273,-4.8235,-4.8263,-4.8279,-4.8283,-4.8288,-4.8252,-4.8311,-4.8417,-4.8429,-4.8295,-4.8294,-4.8292,0,-4.776,-4.7847,-4.7916,-4.794,-4.7999,-4.8031,-4.8057,-4.8099,-4.8132,-4.8178,-4.8199,-4.8251,-4.828,-4.832,-4.8338,-4.8313,-4.842,-4.8389,-4.8431,-4.8431,-4.8452,-4.845,-4.8563,-4.8471,-4.8471,-4.8471,-4.8471,0,-4.7846,-4.7905,-4.7941,-4.7983,-4.8049,-4.8068,-4.8133,-4.8158,-4.8196,-4.8242,-4.8247,-4.829,-4.8313,-4.836,-4.8375,-4.8441,-4.8454,-4.8465,-4.8468,-4.8464,-4.8463,-4.8482,-4.8476,-4.8474,-4.8473,-4.8473,-4.8472,0,-4.7914,-4.7941,-4.8016,-4.8067,-4.8081,-4.8127,-4.817,-4.8211,-4.8232,-4.8292,-4.8307,-4.834,-4.8396,-4.8419,-4.8487,-4.8497,-4.8573,-4.8572,-4.8558,-4.8559,-4.86,-4.8595,-4.8728,-4.8746,-4.8643,-4.8643,-4.8644,0,-4.7967,-4.8013,-4.8069,-4.8101,-4.8128,-4.818,-4.8214,-4.8236,-4.8271,-4.8325,-4.836,-4.8416,-4.8462,-4.8551,-4.8581,-4.8633,-4.8633,-4.8676,-4.8641,-4.8636,-4.8633,-4.863,-4.8634,-4.8682,-4.8683,-4.8684,-4.8684,0,-4.8059,-4.807,-4.8119,-4.8174,-4.8215,-4.8259,-4.8301,-4.8327,-4.8355,-4.8394,-4.8452,-4.8488,-4.8558,-4.8614,-4.8668,-4.8694,-4.8694,-4.8696,-4.8708,-4.8704,-4.8694,-4.87,-4.8575,-4.8692,-4.8691,-4.8691,-4.869,-4.869,-4.8121,-4.8161,-4.8208,-4.8263,-4.8297,-4.8338,-4.8379,-4.8407,-4.8456,-4.8516,-4.8525,-4.8587,-4.8631,-4.8704,-4.8732,-4.878,-4.8769,-4.8787,-4.8792,-4.8795,-4.8798,-4.8687,-4.879,-4.879,-4.879,-4.879,-4.879,0,-4.8212,-4.8242,-4.8293,-4.8353,-4.8397,-4.8395,-4.8442,-4.8478,-4.8533,-4.8575,-4.8621,-4.8687,-4.8742,-4.8777,-4.8832,-4.8863,-4.8865,-4.8877,-4.8874,-4.888,-4.8805,-4.8789,-4.8875,-4.8875,-4.8875,-4.8875,-4.8875,-4.8875,-4.8264,-4.8334,-4.8351,-4.8437,-4.8467,-4.8528,-4.8556,-4.8593,-4.8626,-4.8701,-4.8747,-4.877,-4.8809,-4.8867,-4.8917,-4.8925,-4.8945,-4.8958,-4.8966,-4.8895,-4.8886,-4.8877,-4.8862,-4.8962,-4.8962,-4.9037,-4.9038,-4.9039]}]]